Location: Unspecified
(0.0000°N, 0.0000°E)
Time: 05:58:18
(UTC+00:00)

N. Korean satellite - Pass Details

Date: 10 August 2020
Orbit: 453 x 506 km, 97.2° (Epoch: 13 August)

Event Time Altitude Azimuth Distance (km) Brightness Sun altitude
Rises 05:10:48 0° 11° (N) 2,536 10.6 -13.1°
Reaches altitude 10° 05:12:50 10° 12° (NNE) 1,668 9.6 -12.7°
Maximum altitude 05:16:26 88° 97° (E) 498 6.6 -11.8°
Drops below altitude 10° 05:20:06 10° 190° (S) 1,702 9.1 -10.9°
Sets 05:22:12 0° 190° (S) 2,594 10.0 -10.4°
